�������l�o���
Date,Time,MP-1(��Sv/h),MP-2(��Sv/h),MP-3(��Sv/h),MP-4(��Sv/h),MP-5(��Sv/h),MP-6(��Sv/h),MP-7(��Sv/h),MP-8(��Sv/h),����,����(m/s),���J
2017/12/25,00:00,0.915,1.510,0.952,1.785,1.207,0.504,0.887,0.850,��쐼,10.0,��
2017/12/25,00:10,0.913,1.513,0.951,1.787,1.207,0.504,0.888,0.854,��쐼,8.1,��
2017/12/25,00:20,0.914,1.511,0.951,1.786,1.211,0.503,0.890,0.854,��쐼,7.4,��
2017/12/25,00:30,0.912,1.510,0.951,1.788,1.208,0.503,0.890,0.854,��,7.3,��
2017/12/25,00:40,0.913,1.515,0.954,1.787,1.207,0.503,0.887,0.854,��,6.3,��
2017/12/25,00:50,0.914,1.517,0.952,1.787,1.210,0.503,0.888,0.852,��,4.9,��
2017/12/25,01:00,0.914,1.512,0.951,1.784,1.207,0.504,0.892,0.853,��,9.9,�L
2017/12/25,01:10,0.912,1.510,0.951,1.783,1.208,0.504,0.890,0.854,��쐼,11.9,�L
2017/12/25,01:20,0.914,1.510,0.952,1.786,1.209,0.505,0.888,0.853,��,12.5,�L
2017/12/25,01:30,0.915,1.511,0.951,1.787,1.207,0.502,0.887,0.853,��쐼,9.8,�L
2017/12/25,01:40,0.912,1.509,0.951,1.785,1.210,0.505,0.889,0.853,��쐼,9.5,�L
2017/12/25,01:50,0.912,1.509,0.951,1.784,1.208,0.503,0.886,0.853,��,8.0,�L
2017/12/25,02:00,0.911,1.508,0.952,1.785,1.209,0.504,0.886,0.851,��,7.7,�L
2017/12/25,02:10,0.913,1.509,0.951,1.787,1.208,0.504,0.889,0.852,��,8.1,�L
2017/12/25,02:20,0.913,1.510,0.953,1.786,1.211,0.504,0.890,0.851,��,7.6,�L
2017/12/25,02:30,0.913,1.507,0.953,1.783,1.207,0.503,0.888,0.851,��,7.2,�L
2017/12/25,02:40,0.913,1.508,0.950,1.783,1.207,0.503,0.889,0.851,��쐼,7.3,�L
2017/12/25,02:50,0.912,1.509,0.951,1.784,1.207,0.503,0.890,0.851,��,7.6,�L
2017/12/25,03:00,0.913,1.510,0.949,1.783,1.205,0.502,0.890,0.853,��,8.6,�L
2017/12/25,03:10,0.913,1.506,0.952,1.784,1.206,0.505,0.888,0.852,��,8.5,�L
2017/12/25,03:20,0.910,1.504,0.949,1.781,1.205,0.504,0.889,0.851,��,8.9,�L
2017/12/25,03:30,0.909,1.501,0.946,1.778,1.202,0.503,0.887,0.850,��,9.4,�L
2017/12/25,03:40,0.909,1.498,0.947,1.777,1.197,0.504,0.885,0.850,��,8.3,�L
2017/12/25,03:50,0.907,1.493,0.946,1.772,1.196,0.503,0.886,0.849,��,8.2,�L
2017/12/25,04:00,0.903,1.493,0.941,1.771,1.193,0.502,0.884,0.850,��,6.7,�L
2017/12/25,04:10,0.903,1.484,0.942,1.769,1.190,0.502,0.884,0.847,��,7.1,�L
2017/12/25,04:20,0.901,1.488,0.941,1.766,1.185,0.503,0.883,0.847,��,6.6,�L
2017/12/25,04:30,0.902,1.483,0.939,1.766,1.184,0.503,0.881,0.847,��,5.5,�L
2017/12/25,04:40,0.901,1.482,0.938,1.760,1.184,0.502,0.882,0.848,��쐼,3.2,�L
2017/12/25,04:50,0.900,1.481,0.938,1.760,1.184,0.502,0.880,0.846,��쐼,3.2,�L
2017/12/25,05:00,0.899,1.480,0.940,1.761,1.185,0.502,0.881,0.845,��쐼,3.2,�L
2017/12/25,05:10,0.898,1.479,0.937,1.761,1.182,0.500,0.880,0.848,���쐼,3.8,�L
2017/12/25,05:20,0.897,1.479,0.937,1.757,1.180,0.501,0.881,0.846,�쐼,4.0,�L
2017/12/25,05:30,0.896,1.470,0.936,1.756,1.176,0.500,0.880,0.844,��,3.7,�L
2017/12/25,05:40,0.886,1.458,0.925,1.741,1.168,0.498,0.876,0.841,�k��,8.7,�L
2017/12/25,05:50,0.885,1.455,0.928,1.735,1.167,0.499,0.877,0.841,���k��,7.9,�L
2017/12/25,06:00,0.884,1.451,0.924,1.731,1.165,0.496,0.876,0.840,�k��,6.6,�L
2017/12/25,06:10,0.883,1.448,0.923,1.730,1.162,0.495,0.874,0.840,�k��,6.8,�L
2017/12/25,06:20,0.882,1.446,0.923,1.724,1.156,0.495,0.872,0.840,�k��,5.2,�L
2017/12/25,06:30,0.884,1.444,0.921,1.722,1.159,0.497,0.873,0.841,�k��,4.9,�L
2017/12/25,06:40,0.883,1.445,0.923,1.721,1.159,0.497,0.873,0.838,�k��,6.6,�L
2017/12/25,06:50,0.883,1.445,0.924,1.722,1.159,0.496,0.873,0.840,�k��,9.0,�L
2017/12/25,07:00,0.885,1.445,0.924,1.721,1.161,0.497,0.875,0.839,�k��,8.9,��
2017/12/25,07:10,0.883,1.447,0.921,1.725,1.162,0.497,0.874,0.843,�k��,8.4,��
2017/12/25,07:20,0.883,1.447,0.921,1.726,1.162,0.494,0.877,0.841,�k��,9.4,��
2017/12/25,07:30,0.882,1.451,0.922,1.728,1.162,0.495,0.874,0.842,�k��,9.4,��
2017/12/25,07:40,0.885,1.451,0.923,1.728,1.162,0.495,0.875,0.840,�k��,7.7,��
2017/12/25,07:50,0.882,1.452,0.924,1.729,1.161,0.494,0.876,0.840,�k��,7.9,��
2017/12/25,08:00,0.881,1.451,0.922,1.728,1.161,0.495,0.876,0.841,�k��,9.5,��
2017/12/25,08:10,0.882,1.449,0.922,1.730,1.161,0.493,0.877,0.841,�k��,8.2,��
2017/12/25,08:20,0.883,1.451,0.922,1.730,1.163,0.493,0.877,0.841,�k��,6.9,��
2017/12/25,08:30,0.886,1.452,0.923,1.731,1.164,0.495,0.877,0.842,�k��,9.1,��
2017/12/25,08:40,0.884,1.450,0.921,1.731,1.165,0.493,0.878,0.841,�k�k��,5.8,��
2017/12/25,08:50,0.882,1.454,0.922,1.729,1.166,0.492,0.877,0.842,�k�k��,5.8,��
2017/12/25,09:00,0.882,1.454,0.921,1.733,1.164,0.493,0.875,0.841,�k��,8.0,��
2017/12/25,09:10,0.884,1.453,0.922,1.731,1.162,0.493,0.875,0.842,�k�k��,11.8,��
2017/12/25,09:20,0.883,1.455,0.922,1.733,1.166,0.492,0.877,0.843,�k�k��,13.2,��
2017/12/25,09:30,0.882,1.454,0.919,1.734,1.164,0.492,0.875,0.842,�k�k��,12.7,��
2017/12/25,09:40,0.884,1.455,0.923,1.733,1.166,0.492,0.876,0.843,�k�k��,11.3,��
2017/12/25,09:50,0.883,1.455,0.922,1.734,1.168,0.492,0.876,0.842,�k�k��,11.6,�L
2017/12/25,10:00,0.882,1.455,0.921,1.734,1.165,0.491,0.877,0.844,�k��,11.9,�L
2017/12/25,10:10,0.884,1.455,0.921,1.735,1.166,0.490,0.878,0.843,�k��,9.1,��
2017/12/25,10:20,0.883,1.457,0.923,1.737,1.170,0.493,0.876,0.843,�k��,8.1,�L
2017/12/25,10:30,0.885,1.458,0.923,1.739,1.163,0.493,0.876,0.842,�k��,7.0,�L
2017/12/25,10:40,0.886,1.457,0.923,1.736,1.159,0.492,0.875,0.843,�k�k��,6.2,��
2017/12/25,10:50,0.886,1.457,0.927,1.736,1.166,0.493,0.876,0.843,�k�k��,6.7,�L
2017/12/25,11:00,0.885,1.459,0.925,1.739,1.166,0.493,0.875,0.841,�k�k��,5.8,��
2017/12/25,11:10,0.887,1.456,0.922,1.738,1.158,0.492,0.876,0.842,�k��,4.0,��
2017/12/25,11:20,0.884,1.460,0.926,1.739,1.163,0.493,0.875,0.844,���k��,8.6,��
2017/12/25,11:30,0.888,1.459,0.925,1.739,-,0.493,0.877,0.843,���k��,7.5,�L
2017/12/25,11:40,0.884,1.457,0.925,1.739,-,0.492,0.877,0.843,�k��,2.5,��
2017/12/25,11:50,0.886,1.461,0.922,1.738,-,0.494,0.877,0.844,��,7.0,�L
2017/12/25,12:00,0.888,1.460,0.925,1.740,-,0.494,0.875,0.843,��,6.4,��
2017/12/25,12:10,0.886,1.461,0.925,1.741,-,0.494,0.876,0.844,�k��,3.7,�L
2017/12/25,12:20,0.886,1.463,0.928,1.740,-,0.493,0.877,0.843,���k��,6.2,�L
2017/12/25,12:30,0.885,1.466,0.927,1.744,-,0.492,0.879,0.845,���k��,8.2,�L
2017/12/25,12:40,0.886,1.465,0.924,1.742,-,0.493,0.878,0.844,��,6.4,�L
2017/12/25,12:50,0.888,1.463,0.926,1.743,-,0.494,0.878,0.844,��,12.7,�L
2017/12/25,13:00,0.886,1.467,0.927,1.741,-,0.496,0.880,0.844,���k��,11.3,��
2017/12/25,13:10,0.887,1.467,0.928,1.743,-,0.495,0.877,0.844,���k��,12.7,��
2017/12/25,13:20,0.888,1.469,0.927,1.745,-,0.494,0.878,0.844,��,10.3,��
2017/12/25,13:30,0.889,1.468,0.927,1.747,-,0.496,0.879,0.841,���k��,8.9,��
2017/12/25,13:40,0.888,1.465,0.927,1.744,-,0.495,0.879,0.842,���k��,11.0,��
2017/12/25,13:50,0.888,1.464,0.929,1.747,-,0.495,0.876,0.841,���k��,8.7,��
2017/12/25,14:00,0.888,1.464,0.929,1.747,-,0.495,0.877,0.842,���k��,8.3,��
2017/12/25,14:10,0.887,1.465,0.928,1.747,-,0.495,0.877,0.844,�k��,11.6,��
2017/12/25,14:20,0.887,1.466,0.930,1.746,-,0.494,0.878,0.842,���k��,9.6,��
2017/12/25,14:30,0.889,1.461,0.928,1.749,-,0.494,0.879,0.843,�k��,6.6,��
2017/12/25,14:40,0.889,1.467,0.928,1.748,-,0.493,0.878,0.844,���k��,7.3,��
2017/12/25,14:50,0.887,1.466,0.929,1.748,-,0.493,0.879,0.843,���k��,8.5,��
2017/12/25,15:00,0.888,1.470,0.929,1.748,-,0.494,0.879,0.845,���k��,6.2,��
2017/12/25,15:10,0.890,1.471,0.929,1.749,-,0.494,0.878,0.843,��,4.9,��
2017/12/25,15:20,0.888,1.469,0.931,1.751,-,0.495,0.877,0.844,���k��,6.3,��
2017/12/25,15:30,0.890,1.471,0.928,1.748,-,0.495,0.878,0.843,���k��,7.9,��
2017/12/25,15:40,0.888,1.474,0.928,1.750,-,0.494,0.880,0.843,��,5.9,��
2017/12/25,15:50,0.890,1.473,0.929,1.751,-,0.496,0.881,0.845,���쐼,5.3,��
2017/12/25,16:00,0.887,1.469,0.928,1.748,-,0.495,0.880,0.844,��,3.5,��
2017/12/25,16:10,0.889,1.470,0.931,1.749,-,0.494,0.879,0.843,���쐼,3.9,��
2017/12/25,16:20,0.885,1.471,0.928,1.746,-,0.493,0.879,0.843,��,5.8,��
2017/12/25,16:30,0.886,1.472,0.930,1.746,-,0.494,0.879,0.842,��,5.7,��
2017/12/25,16:40,0.887,1.474,0.928,1.749,-,0.493,0.881,0.842,���쐼,3.5,��
2017/12/25,16:50,0.888,1.475,0.927,1.747,1.174,0.494,0.880,0.843,���쐼,4.7,��
2017/12/25,17:00,0.887,1.472,0.927,1.747,1.179,0.493,0.880,0.844,���쐼,3.8,��
2017/12/25,17:10,0.885,1.472,0.929,1.749,1.178,0.493,0.880,0.843,��,4.9,��
2017/12/25,17:20,0.886,1.473,0.928,1.748,1.179,0.492,0.880,0.843,�쐼,3.1,��
2017/12/25,17:30,0.886,1.472,0.928,1.747,1.180,0.493,0.880,0.843,�쐼,3.1,��
2017/12/25,17:40,0.886,1.471,0.928,1.748,1.179,0.493,0.878,0.844,���쐼,3.8,��
2017/12/25,17:50,0.887,1.472,0.928,1.747,1.178,0.493,0.879,0.843,�쐼,3.0,��
2017/12/25,18:00,0.885,1.472,0.930,1.750,1.177,0.494,0.879,0.842,���쐼,4.9,��
2017/12/25,18:10,0.888,1.474,0.929,1.746,1.178,0.494,0.881,0.842,���쐼,4.0,��
2017/12/25,18:20,0.886,1.472,0.929,1.750,1.179,0.493,0.880,0.844,���쐼,5.9,��
2017/12/25,18:30,0.885,1.470,0.929,1.749,1.178,0.492,0.879,0.844,���쐼,5.2,��
2017/12/25,18:40,0.887,1.472,0.930,1.747,1.180,0.494,0.879,0.843,���쐼,7.0,��
2017/12/25,18:50,0.884,1.472,0.927,1.748,1.179,0.493,0.879,0.842,��,6.6,��
2017/12/25,19:00,0.887,1.472,0.928,1.748,1.178,0.494,0.878,0.843,���쐼,6.6,��
2017/12/25,19:10,0.887,1.472,0.928,1.749,1.180,0.492,0.880,0.844,���쐼,6.7,��
2017/12/25,19:20,0.886,1.472,0.930,1.751,1.181,0.493,0.879,0.841,���k��,7.8,��
2017/12/25,19:30,0.888,1.473,0.927,1.749,1.181,0.492,0.879,0.842,��,7.5,��
2017/12/25,19:40,0.887,1.472,0.929,1.750,1.180,0.493,0.879,0.842,��,8.2,��
2017/12/25,19:50,0.886,1.473,0.927,1.747,1.180,0.494,0.878,0.843,��,5.9,��
2017/12/25,20:00,0.888,1.473,0.927,1.748,1.180,0.493,0.880,0.843,���쐼,3.0,��
2017/12/25,20:10,0.886,1.473,0.927,1.749,1.179,0.493,0.881,0.842,��,5.4,��
2017/12/25,20:20,0.886,1.475,0.928,1.749,1.181,0.494,0.881,0.842,��,2.6,��
2017/12/25,20:30,0.886,1.470,0.928,1.748,1.179,0.494,0.880,0.843,��,5.5,��
2017/12/25,20:40,0.887,1.470,0.927,1.749,1.179,0.492,0.880,0.842,��,4.4,��
2017/12/25,20:50,0.886,1.472,0.927,1.750,1.180,0.492,0.880,0.843,���k��,4.8,��
2017/12/25,21:00,0.886,1.475,0.928,1.748,1.179,0.494,0.879,0.844,���k��,4.4,��
2017/12/25,21:10,0.888,1.472,0.928,1.748,1.179,0.493,0.879,0.843,�k��,2.9,��
2017/12/25,21:20,0.885,1.473,0.927,1.749,1.179,0.492,0.878,0.844,��,2.9,��
2017/12/25,21:30,0.886,1.471,0.929,1.750,1.180,0.491,0.879,0.844,�쐼,3.2,��
2017/12/25,21:40,0.885,1.475,0.928,1.748,1.178,0.494,0.879,0.842,���k��,1.7,��
2017/12/25,21:50,0.884,1.474,0.929,1.749,1.181,0.494,0.880,0.842,�k��,3.3,��
2017/12/25,22:00,0.885,1.472,0.928,1.753,1.178,0.493,0.878,0.842,�k,2.6,��
2017/12/25,22:10,0.887,1.474,0.927,1.749,1.180,0.493,0.879,0.844,�k�k��,1.5,��
2017/12/25,22:20,0.884,1.472,0.926,1.749,1.178,0.493,0.879,0.842,���k��,1.2,��
2017/12/25,22:30,0.887,1.473,0.926,1.750,1.177,0.493,0.878,0.843,�k,0.9,��
2017/12/25,22:40,0.884,1.471,0.927,1.748,1.180,0.492,0.879,0.842,�k�k��,1.5,��
2017/12/25,22:50,0.885,1.473,0.926,1.746,1.179,0.494,0.878,0.842,�k�k��,1.7,��
2017/12/25,23:00,0.885,1.473,0.927,1.746,1.179,0.493,0.876,0.842,�k,3.2,��
2017/12/25,23:10,0.885,1.471,0.926,1.745,1.178,0.490,0.877,0.841,�k�k��,2.9,��
2017/12/25,23:20,0.884,1.473,0.926,1.747,1.180,0.492,0.876,0.843,�k,2.3,��
2017/12/25,23:30,0.884,1.472,0.927,1.746,1.178,0.491,0.878,0.843,�k�k��,2.2,��
2017/12/25,23:40,0.883,1.472,0.925,1.749,1.180,0.492,0.878,0.841,�k�k��,1.5,��
2017/12/25,23:50,0.884,1.473,0.924,1.747,1.178,0.490,0.877,0.842,�k�k��,0.6,��
